Meteo orario Alhos Vedros

Oggi, 21 Ottobre, Mercoledi

Tempo Temperatura Precipitazioni Vento Pressione Umidità
00:00 +16°C° 0.1 mm 6 m/s 752 mm Hg 85%
01:00 +16°C° 0.1 mm 5 m/s 752 mm Hg 86%
02:00 +17°C° 0.1 mm 4 m/s 751 mm Hg 87%
03:00 +17°C° 0.2 mm 4 m/s 752 mm Hg 87%
04:00 +15°C° 0.2 mm 4 m/s 752 mm Hg 87%
05:00 +16°C° 0.2 mm 3 m/s 753 mm Hg 87%
06:00 +17°C° 0.2 mm 4 m/s 753 mm Hg 82%
07:00 +17°C° 0.2 mm 5 m/s 754 mm Hg 78%
08:00 +19°C° 0.2 mm 5 m/s 754 mm Hg 74%
09:00 +20°C° 0.7 mm 5 m/s 754 mm Hg 71%
10:00 +20°C° 0.7 mm 6 m/s 755 mm Hg 68%
11:00 +21°C° 0.7 mm 6 m/s 755 mm Hg 66%
12:00 +21°C° 0.1 mm 5 m/s 755 mm Hg 65%
13:00 +21°C° 0.1 mm 5 m/s 755 mm Hg 64%
14:00 +21°C° 0.1 mm 5 m/s 755 mm Hg 63%
15:00 +20°C° 0.1 mm 4 m/s 755 mm Hg 68%
16:00 +18°C° 0.1 mm 4 m/s 755 mm Hg 72%
17:00 +17°C° 0.1 mm 3 m/s 755 mm Hg 77%
18:00 +17°C° 0.1 mm 3 m/s 756 mm Hg 79%
19:00 +17°C° 0.1 mm 3 m/s 756 mm Hg 81%
20:00 +17°C° 0.1 mm 3 m/s 757 mm Hg 82%
21:00 +16°C° 0.1 mm 3 m/s 757 mm Hg 83%
22:00 +16°C° 0.1 mm 3 m/s 757 mm Hg 84%
23:00 +16°C° 0.1 mm 3 m/s 757 mm Hg 85%

Domani, 22 Ottobre, Giovedi

Tempo Temperatura Precipitazioni Vento Pressione Umidità
00:00 +16°C° 0.3 mm 3 m/s 757 mm Hg 86%
01:00 +16°C° 0.3 mm 3 m/s 756 mm Hg 86%
02:00 +16°C° 0.3 mm 3 m/s 756 mm Hg 86%
03:00 +16°C° 0.2 mm 3 m/s 757 mm Hg 87%
04:00 +14°C° 0.2 mm 3 m/s 757 mm Hg 87%
05:00 +14°C° 0.2 mm 3 m/s 757 mm Hg 88%
06:00 +16°C° 0.2 mm 3 m/s 757 mm Hg 83%
07:00 +17°C° 0.2 mm 3 m/s 758 mm Hg 78%
08:00 +18°C° 0.2 mm 3 m/s 758 mm Hg 73%
09:00 +19°C° 0 mm 4 m/s 758 mm Hg 68%
10:00 +20°C° 0 mm 4 m/s 758 mm Hg 64%
11:00 +21°C° 0 mm 5 m/s 758 mm Hg 59%
12:00 +20°C° 0.1 mm 5 m/s 759 mm Hg 59%
13:00 +20°C° 0.1 mm 5 m/s 759 mm Hg 60%
14:00 +20°C° 0.1 mm 6 m/s 759 mm Hg 61%
15:00 +19°C° 0.1 mm 5 m/s 759 mm Hg 66%
16:00 +18°C° 0.1 mm 4 m/s 759 mm Hg 72%
17:00 +17°C° 0.1 mm 4 m/s 760 mm Hg 77%
18:00 +17°C° 0.1 mm 3 m/s 760 mm Hg 79%
19:00 +17°C° 0.1 mm 2 m/s 761 mm Hg 81%
20:00 +16°C° 0.1 mm 2 m/s 762 mm Hg 83%
21:00 +16°C° 0 mm 2 m/s 762 mm Hg 84%
22:00 +16°C° 0 mm 1 m/s 763 mm Hg 85%
23:00 +15°C° 0 mm 1 m/s 763 mm Hg 85%

Dopodomani, 23 Ottobre, Venerdi

Tempo Temperatura Precipitazioni Vento Pressione Umidità
00:00 +15°C° 0 mm 1 m/s 763 mm Hg 86%
01:00 +15°C° 0 mm 1 m/s 763 mm Hg 87%
02:00 +15°C° 0 mm 1 m/s 764 mm Hg 87%
03:00 +14°C° 0 mm 1 m/s 764 mm Hg 87%
04:00 +14°C° 0 mm 1 m/s 765 mm Hg 88%
05:00 +14°C° 0 mm 1 m/s 765 mm Hg 88%
06:00 +15°C° 0 mm 1 m/s 766 mm Hg 83%
07:00 +16°C° 0 mm 1 m/s 766 mm Hg 79%
08:00 +18°C° 0 mm 1 m/s 767 mm Hg 74%
09:00 +20°C° 0 mm 1 m/s 767 mm Hg 68%
10:00 +21°C° 0 mm 1 m/s 767 mm Hg 62%
11:00 +21°C° 0 mm 2 m/s 768 mm Hg 56%
12:00 +21°C° 0 mm 2 m/s 768 mm Hg 56%
13:00 +21°C° 0 mm 3 m/s 768 mm Hg 55%
14:00 +21°C° 0 mm 3 m/s 768 mm Hg 55%
15:00 +20°C° 0 mm 3 m/s 768 mm Hg 62%
16:00 +18°C° 0 mm 4 m/s 768 mm Hg 68%
17:00 +17°C° 0 mm 4 m/s 768 mm Hg 74%
18:00 +15°C° 0 mm 4 m/s 768 mm Hg 78%
19:00 +16°C° 0 mm 3 m/s 769 mm Hg 81%
20:00 +14°C° 0 mm 3 m/s 769 mm Hg 84%
21:00 +14°C° 0 mm 3 m/s 769 mm Hg 85%
22:00 +14°C° 0 mm 2 m/s 769 mm Hg 86%
23:00 +14°C° 0 mm 2 m/s 769 mm Hg 87%

24 Ottobre, Sabato

Tempo Temperatura Precipitazioni Vento Pressione Umidità
00:00 +14°C° 0 mm 2 m/s 769 mm Hg 87%
01:00 +13°C° 0 mm 1 m/s 769 mm Hg 87%
02:00 +13°C° 0 mm 1 m/s 769 mm Hg 88%
03:00 +13°C° 0 mm 1 m/s 769 mm Hg 87%
04:00 +13°C° 0 mm 1 m/s 768 mm Hg 87%
05:00 +13°C° 0 mm 1 m/s 768 mm Hg 87%
06:00 +14°C° 0 mm 1 m/s 768 mm Hg 82%
07:00 +15°C° 0 mm 1 m/s 768 mm Hg 77%
08:00 +15°C° 0 mm 0 m/s 769 mm Hg 72%
09:00 +16°C° 0 mm 0 m/s 768 mm Hg 66%
10:00 +19°C° 0 mm 1 m/s 768 mm Hg 60%
11:00 +21°C° 0 mm 1 m/s 768 mm Hg 54%
12:00 +21°C° 0 mm 1 m/s 768 mm Hg 54%
13:00 +20°C° 0 mm 2 m/s 767 mm Hg 54%
14:00 +20°C° 0 mm 2 m/s 767 mm Hg 54%
15:00 +19°C° 0 mm 3 m/s 767 mm Hg 60%
16:00 +17°C° 0 mm 3 m/s 767 mm Hg 66%
17:00 +16°C° 0 mm 3 m/s 766 mm Hg 73%
18:00 +16°C° 0 mm 3 m/s 766 mm Hg 75%
19:00 +14°C° 0 mm 3 m/s 767 mm Hg 77%
20:00 +14°C° 0 mm 3 m/s 767 mm Hg 78%
21:00 +14°C° 0 mm 3 m/s 767 mm Hg 79%
22:00 +14°C° 0 mm 3 m/s 766 mm Hg 79%
23:00 +14°C° 0 mm 3 m/s 766 mm Hg 79%

25 Ottobre, Domenica

Tempo Temperatura Precipitazioni Vento Pressione Umidità
00:00 +16°C° 0 mm 3 m/s 766 mm Hg 79%
01:00 +16°C° 0 mm 3 m/s 765 mm Hg 80%
02:00 +15°C° 0 mm 4 m/s 765 mm Hg 80%
03:00 +17°C° 0 mm 4 m/s 765 mm Hg 81%
04:00 +17°C° 0 mm 4 m/s 765 mm Hg 81%
05:00 +16°C° 0 mm 5 m/s 764 mm Hg 82%
06:00 +17°C° 0.1 mm 5 m/s 764 mm Hg 81%
07:00 +19°C° 0.1 mm 6 m/s 764 mm Hg 80%
08:00 +19°C° 0.1 mm 6 m/s 765 mm Hg 79%
09:00 +19°C° 0.4 mm 6 m/s 765 mm Hg 80%
10:00 +19°C° 0.4 mm 5 m/s 765 mm Hg 81%
11:00 +17°C° 0.4 mm 5 m/s 765 mm Hg 82%
12:00 +19°C° 0.1 mm 5 m/s 765 mm Hg 76%
13:00 +19°C° 0.1 mm 5 m/s 765 mm Hg 71%
14:00 +19°C° 0.1 mm 5 m/s 764 mm Hg 66%
15:00 +17°C° 0 mm 5 m/s 765 mm Hg 67%
16:00 +16°C° 0 mm 5 m/s 765 mm Hg 69%
17:00 +15°C° 0 mm 5 m/s 765 mm Hg 71%
18:00 +14°C° 0 mm 4 m/s 766 mm Hg 72%
19:00 +14°C° 0 mm 4 m/s 766 mm Hg 74%
20:00 +14°C° 0 mm 4 m/s 766 mm Hg 76%
21:00 +13°C° 0 mm 4 m/s 767 mm Hg 76%
22:00 +13°C° 0 mm 4 m/s 767 mm Hg 77%
23:00 +13°C° 0 mm 4 m/s 767 mm Hg 78%

26 Ottobre, Lunedi

Tempo Temperatura Precipitazioni Vento Pressione Umidità
00:00 +13°C° 0 mm 4 m/s 767 mm Hg 78%
01:00 +13°C° 0 mm 4 m/s 767 mm Hg 78%
02:00 +13°C° 0 mm 4 m/s 766 mm Hg 78%
03:00 +12°C° 0 mm 4 m/s 767 mm Hg 78%
04:00 +12°C° 0 mm 3 m/s 767 mm Hg 78%
05:00 +12°C° 0 mm 3 m/s 767 mm Hg 78%
06:00 +13°C° 0 mm 3 m/s 767 mm Hg 74%
07:00 +14°C° 0 mm 3 m/s 768 mm Hg 70%
08:00 +15°C° 0 mm 4 m/s 768 mm Hg 66%
09:00 +17°C° 0 mm 3 m/s 768 mm Hg 61%
10:00 +18°C° 0 mm 3 m/s 768 mm Hg 57%
11:00 +19°C° 0 mm 3 m/s 768 mm Hg 52%
12:00 +19°C° 0 mm 4 m/s 767 mm Hg 53%
13:00 +19°C° 0 mm 4 m/s 767 mm Hg 54%
14:00 +19°C° 0 mm 4 m/s 767 mm Hg 54%
15:00 +18°C° 0 mm 4 m/s 767 mm Hg 59%
16:00 +17°C° 0 mm 4 m/s 767 mm Hg 63%
17:00 +16°C° 0 mm 3 m/s 767 mm Hg 68%
18:00 +14°C° 0 mm 3 m/s 767 mm Hg 71%
19:00 +15°C° 0 mm 2 m/s 767 mm Hg 73%
20:00 +14°C° 0 mm 2 m/s 767 mm Hg 76%
21:00 +14°C° 0 mm 2 m/s 767 mm Hg 77%
22:00 +14°C° 0 mm 1 m/s 767 mm Hg 78%
23:00 +14°C° 0 mm 1 m/s 767 mm Hg 80%

27 Ottobre, Martedi

Tempo Temperatura Precipitazioni Vento Pressione Umidità
00:00 +13°C° 0 mm 1 m/s 767 mm Hg 81%
01:00 +13°C° 0 mm 1 m/s 767 mm Hg 82%
02:00 +12°C° 0 mm 0 m/s 766 mm Hg 83%
03:00 +12°C° 0 mm 0 m/s 766 mm Hg 84%
04:00 +12°C° 0 mm 0 m/s 766 mm Hg 84%
05:00 +12°C° 0 mm 0 m/s 766 mm Hg 85%
06:00 +13°C° 0 mm 0 m/s 766 mm Hg 81%
07:00 +14°C° 0 mm 0 m/s 766 mm Hg 76%
08:00 +15°C° 0 mm 0 m/s 766 mm Hg 72%
09:00 +18°C° 0 mm 1 m/s 766 mm Hg 67%
10:00 +20°C° 0 mm 1 m/s 766 mm Hg 63%
11:00 +21°C° 0 mm 1 m/s 765 mm Hg 58%
12:00 +20°C° 0 mm 2 m/s 765 mm Hg 59%
13:00 +20°C° 0 mm 2 m/s 765 mm Hg 60%
14:00 +20°C° 0 mm 3 m/s 764 mm Hg 61%
15:00 +19°C° 0 mm 2 m/s 764 mm Hg 66%
16:00 +18°C° 0 mm 2 m/s 764 mm Hg 71%
17:00 +17°C° 0 mm 2 m/s 764 mm Hg 76%
18:00 +16°C° 0 mm 2 m/s 764 mm Hg 78%
19:00 +16°C° 0 mm 2 m/s 764 mm Hg 80%
20:00 +16°C° 0 mm 2 m/s 764 mm Hg 82%
21:00 +16°C° 0 mm 2 m/s 764 mm Hg 83%
22:00 +15°C° 0 mm 2 m/s 763 mm Hg 83%
23:00 +15°C° 0 mm 1 m/s 763 mm Hg 83%
Mostrare altro

Abbiamo bisogno del tuo consenso

Meteoprog e i nostri fornitori di servizi possono memorizzare e accedere a dati personali come cookie, identificatori di dispositivi o altre tecnologie simili sul tuo dispositivo e possono elaborare tali dati per personalizzare i contenuti e gli annunci, nonché fornire funzionalità dei social media e analizzarne il traffico.

  • Archiviare e/o accedere alle informazioni sul tuo dispositivo

    Cookie, identificatori di dispositivi o altre informazioni possono essere memorizzati o resi accessibili sul tuo dispositivo per le finalità sopra indicate.

  • Annunci e contenuti personalizzati, misurazione di annunci e contenuti, approfondimenti sul pubblico e sviluppo di prodotti

    Gli annunci e i contenuti possono essere personalizzati in base a un profilo. È possibile aggiungere più dati per personalizzare meglio annunci e contenuti. È possibile misurare il rendimento degli annunci e dei contenuti. È possibile ricavare informazioni sul pubblico che ha visto gli annunci e i contenuti. Tali dati possono essere utilizzati per sviluppare o migliorare l'esperienza, i sistemi e il software dell'utente.

Cliccando su “Accetto”, acconsenti all'uso di cookie, identificatori di dispositivo, web beacon o altre tecnologie simili. Puoi modificare le impostazioni nel browser del tuo dispositivo.

Per determinati scopi, è possibile fare affidamento su interessi legali, piuttosto che sul consenso. Puoi approfondire questo argomento consultando la nostra Informativa sulla privacy e sui cookie.